owner,sensor,date,latitude,longitude,vertical_datum,wind_speed,wind_to_direction,wind_speed_of_gust,qcFlag 
TABS,ioos:station:wmo:42047:1,2011-12-01T00:00:00Z,27.8966,-93.5973,4.0,2.308419373,37.96176001,3.16,'11111222,11111222,11111222' 
TABS,ioos:station:wmo:42047:1,2011-12-01T00:30:00Z,27.8966,-93.5973,4.0,2.133775996,58.02273353,3.45,'11111222,11111222,11111222' 
TABS,ioos:station:wmo:42047:1,2011-12-01T01:00:00Z,27.8966,-93.5973,4.0,3.081314654,63.60090493,4.26,'11111222,11111222,11111222' 
TABS,ioos:station:wmo:42047:1,2011-12-01T01:30:00Z,27.8966,-93.5973,4.0,2.74220714,87.70062348,4.09,'11111222,11111222,11111222' 
TABS,ioos:station:wmo:42047:1,2011-12-01T02:00:00Z,27.8966,-93.5973,4.0,3.150253958,89.27205443,4.89,'11111222,11111222,11111222' 
TABS,ioos:station:wmo:42047:1,2011-12-01T02:30:00Z,27.8966,-93.5973,4.0,3.340733452,105.4510515,4.63,'11111222,11111222,11111222' 
TABS,ioos:station:wmo:42047:1,2011-12-01T03:00:00Z,27.8966,-93.5973,4.0,3.528229018,111.6208464,5.33,'11111222,11111222,11111222' 
TABS,ioos:station:wmo:42047:1,2011-12-01T03:30:00Z,27.8966,-93.5973,4.0,4.281646879,100.4967467,5.95,'11111222,11111222,11111222' 
TABS,ioos:station:wmo:42047:1,2011-12-01T04:00:00Z,27.8966,-93.5973,4.0,4.445413367,116.1619262,5.81,'11111222,11111222,11111222' 
TABS,ioos:station:wmo:42047:1,2011-12-01T04:30:00Z,27.8966,-93.5973,4.0,4.822219406,127.4167939,6.37,'11111222,11111222,11111222' 
TABS,ioos:station:wmo:42047:1,2011-12-01T05:00:00Z,27.8966,-93.5973,4.0,4.576210222,136.3284158,5.8,'11111222,11111222,11111222' 
TABS,ioos:station:wmo:42047:1,2011-12-01T05:30:00Z,27.8966,-93.5973,4.0,4.897448315,130.0305866,6.27,'11111222,11111222,11111222' 
TABS,ioos:station:wmo:42047:1,2011-12-01T06:00:00Z,27.8966,-93.5973,4.0,5.282660315,135.8439657,7.25,'11111222,11111222,11111222' 
TABS,ioos:station:wmo:42047:1,2011-12-01T06:30:00Z,27.8966,-93.5973,4.0,5.476906061,138.6273989,6.72,'11111222,11111222,11111222' 
TABS,ioos:station:wmo:42047:1,2011-12-01T07:00:00Z,27.8966,-93.5973,4.0,5.298537534,139.5162995,7.35,'11111222,11111222,11111222' 
TABS,ioos:station:wmo:42047:1,2011-12-01T07:30:00Z,27.8966,-93.5973,4.0,5.919206028,139.9344685,6.9,'11111222,11111222,11111222' 
TABS,ioos:station:wmo:42047:1,2011-12-01T08:00:00Z,27.8966,-93.5973,4.0,5.905929224,151.6995209,7.18,'11111222,11111222,11111222' 
TABS,ioos:station:wmo:42047:1,2011-12-01T08:30:00Z,27.8966,-93.5973,4.0,6.248655855,137.2701893,8.41,'11111222,11111222,11111222' 
TABS,ioos:station:wmo:42047:1,2011-12-01T09:00:00Z,27.8966,-93.5973,4.0,5.967595831,150.815118,7.54,'11111222,11111222,11111222' 
TABS,ioos:station:wmo:42047:1,2011-12-01T09:30:00Z,27.8966,-93.5973,4.0,5.86318173,146.3373247,7.42,'11111222,11111222,11111222' 
TABS,ioos:station:wmo:42047:1,2011-12-01T10:00:00Z,27.8966,-93.5973,4.0,6.012586798,143.9308849,7.45,'11111222,11111222,11111222' 
TABS,ioos:station:wmo:42047:1,2011-12-01T10:30:00Z,27.8966,-93.5973,4.0,6.094694414,142.2654829,7.37,'11111222,11111222,11111222' 
TABS,ioos:station:wmo:42047:1,2011-12-01T11:00:00Z,27.8966,-93.5973,4.0,6.207455195,137.5465631,7.87,'11111222,11111222,11111222' 
TABS,ioos:station:wmo:42047:1,2011-12-01T11:30:00Z,27.8966,-93.5973,4.0,7.2277244,141.2909718,8.73,'11111222,11111222,11111222' 
TABS,ioos:station:wmo:42047:1,2011-12-01T12:00:00Z,27.8966,-93.5973,4.0,6.926037828,138.1606699,8.55,'11111222,11111222,11111222' 
TABS,ioos:station:wmo:42047:1,2011-12-01T12:30:00Z,27.8966,-93.5973,4.0,7.002092544,142.8358225,8.55,'11111222,11111222,11111222' 
TABS,ioos:station:wmo:42047:1,2011-12-01T13:00:00Z,27.8966,-93.5973,4.0,7.308132456,142.7854376,8.29,'11111222,11111222,11111222' 
TABS,ioos:station:wmo:42047:1,2011-12-01T13:30:00Z,27.8966,-93.5973,4.0,7.359415738,139.1879003,9.39,'11111222,11111222,11111222' 
TABS,ioos:station:wmo:42047:1,2011-12-01T14:00:00Z,27.8966,-93.5973,4.0,6.814198412,142.6931646,8.51,'11111222,11111222,11111222' 
TABS,ioos:station:wmo:42047:1,2011-12-01T14:30:00Z,27.8966,-93.5973,4.0,7.053630271,140.4651401,8.4,'11111222,11111222,11111222' 
TABS,ioos:station:wmo:42047:1,2011-12-01T15:00:00Z,27.8966,-93.5973,4.0,7.334302966,140.7548676,9.31,'11111222,11111222,11111222' 
TABS,ioos:station:wmo:42047:1,2011-12-01T15:30:00Z,27.8966,-93.5973,4.0,7.1082839,136.3113305,8.27,'11111222,11111222,11111222' 
TABS,ioos:station:wmo:42047:1,2011-12-01T16:00:00Z,27.8966,-93.5973,4.0,7.316836748,141.0469849,8.81,'11111222,11111222,11111222' 
TABS,ioos:station:wmo:42047:1,2011-12-01T16:30:00Z,27.8966,-93.5973,4.0,6.855370158,136.8326784,8.83,'11111222,11111222,11111222' 
TABS,ioos:station:wmo:42047:1,2011-12-01T17:00:00Z,27.8966,-93.5973,4.0,6.997170857,142.0822252,8.27,'11111222,11111222,11111222' 
TABS,ioos:station:wmo:42047:1,2011-12-01T17:30:00Z,27.8966,-93.5973,4.0,6.667683256,145.8812274,8.11,'11111222,11111222,11111222' 
TABS,ioos:station:wmo:42047:1,2011-12-01T18:00:00Z,27.8966,-93.5973,4.0,6.566010966,143.2351122,8.21,'11111222,11111222,11111222' 
TABS,ioos:station:wmo:42047:1,2011-12-01T18:30:00Z,27.8966,-93.5973,4.0,6.700634298,148.6112529,7.9,'11111222,11111222,11111222' 
TABS,ioos:station:wmo:42047:1,2011-12-01T19:00:00Z,27.8966,-93.5973,4.0,6.718407549,142.4993025,8.38,'11111222,11111222,11111222' 
TABS,ioos:station:wmo:42047:1,2011-12-01T19:30:00Z,27.8966,-93.5973,4.0,7.000714249,142.3119455,8.08,'11111222,11111222,11111222' 
TABS,ioos:station:wmo:42047:1,2011-12-01T20:00:00Z,27.8966,-93.5973,4.0,7.161515203,145.7554787,8.31,'11111222,11111222,11111222' 
TABS,ioos:station:wmo:42047:1,2011-12-01T20:30:00Z,27.8966,-93.5973,4.0,7.003320641,127.982947,8.15,'11111222,11111222,11111222' 
TABS,ioos:station:wmo:42047:1,2011-12-01T21:00:00Z,27.8966,-93.5973,4.0,7.74847727,126.2342975,9.2,'11111222,11111222,11111222' 
TABS,ioos:station:wmo:42047:1,2011-12-01T21:30:00Z,27.8966,-93.5973,4.0,7.696473218,123.6078214,8.89,'11111222,11111222,11111222' 
TABS,ioos:station:wmo:42047:1,2011-12-01T22:00:00Z,27.8966,-93.5973,4.0,7.26704892,124.346438,8.8,'11111222,11111222,11111222' 
TABS,ioos:station:wmo:42047:1,2011-12-01T22:30:00Z,27.8966,-93.5973,4.0,7.574919141,125.9776605,9.23,'11111222,11111222,11111222' 
TABS,ioos:station:wmo:42047:1,2011-12-01T23:00:00Z,27.8966,-93.5973,4.0,7.442130071,124.5445491,9.05,'11111222,11111222,11111222' 
TABS,ioos:station:wmo:42047:1,2011-12-01T23:30:00Z,27.8966,-93.5973,4.0,7.491928991,128.1704443,8.69,'11111222,11111222,11111222' 
TABS,ioos:station:wmo:42047:1,2011-12-02T00:00:00Z,27.8966,-93.5973,4.0,7.651470447,127.9935324,9.03,'11111222,11111222,11111222' 
TABS,ioos:station:wmo:42047:1,2011-12-02T00:30:00Z,27.8966,-93.5973,4.0,7.749180602,125.2285912,9.35,'11111222,11111222,11111222' 
TABS,ioos:station:wmo:42047:1,2011-12-02T01:00:00Z,27.8966,-93.5973,4.0,8.443174758,129.2324403,9.63,'11111222,11111222,11111222' 
TABS,ioos:station:wmo:42047:1,2011-12-02T01:30:00Z,27.8966,-93.5973,4.0,7.910935469,131.7721998,9.6,'11111222,11111222,11111222' 
TABS,ioos:station:wmo:42047:1,2011-12-02T02:00:00Z,27.8966,-93.5973,4.0,8.10138877,125.8093231,9.9,'11111222,11111222,11111222' 
TABS,ioos:station:wmo:42047:1,2011-12-02T02:30:00Z,27.8966,-93.5973,4.0,7.290061728,126.6344491,8.72,'11111222,11111222,11111222' 
TABS,ioos:station:wmo:42047:1,2011-12-02T03:00:00Z,27.8966,-93.5973,4.0,7.4320993,134.4006686,9.16,'11111222,11111222,11111222' 
TABS,ioos:station:wmo:42047:1,2011-12-02T03:30:00Z,27.8966,-93.5973,4.0,7.898461876,138.4390582,9.19,'11111222,11111222,11111222' 
TABS,ioos:station:wmo:42047:1,2011-12-02T04:00:00Z,27.8966,-93.5973,4.0,7.853012161,133.1427297,9.04,'11111222,11111222,11111222' 
TABS,ioos:station:wmo:42047:1,2011-12-02T04:30:00Z,27.8966,-93.5973,4.0,8.11332854,128.9468903,9.08,'11111222,11111222,11111222' 
TABS,ioos:station:wmo:42047:1,2011-12-02T05:00:00Z,27.8966,-93.5973,4.0,8.280489116,127.4929866,10.1,'11111222,11111222,11111222' 
TABS,ioos:station:wmo:42047:1,2011-12-02T05:30:00Z,27.8966,-93.5973,4.0,7.955098994,124.4495126,9.11,'11111222,11111222,11111222' 
TABS,ioos:station:wmo:42047:1,2011-12-02T06:00:00Z,27.8966,-93.5973,4.0,8.166498638,128.2875963,9.74,'11111222,11111222,11111222' 
TABS,ioos:station:wmo:42047:1,2011-12-02T06:30:00Z,27.8966,-93.5973,4.0,8.051962494,124.3219585,9.16,'11111222,11111222,11111222' 
TABS,ioos:station:wmo:42047:1,2011-12-02T07:00:00Z,27.8966,-93.5973,4.0,8.223502903,125.1978419,9.54,'11111222,11111222,11111222' 
TABS,ioos:station:wmo:42047:1,2011-12-02T07:30:00Z,27.8966,-93.5973,4.0,7.886171441,119.5559901,9.13,'11111222,11111222,11111222' 
TABS,ioos:station:wmo:42047:1,2011-12-02T08:00:00Z,27.8966,-93.5973,4.0,7.982004761,121.5796341,9.41,'11111222,11111222,11111222' 
TABS,ioos:station:wmo:42047:1,2011-12-02T08:30:00Z,27.8966,-93.5973,4.0,7.154054794,126.6459844,8.18,'11111222,11111222,11111222' 
TABS,ioos:station:wmo:42047:1,2011-12-02T09:00:00Z,27.8966,-93.5973,4.0,6.651691514,125.5780685,7.77,'11111222,11111222,11111222' 
TABS,ioos:station:wmo:42047:1,2011-12-02T09:30:00Z,27.8966,-93.5973,4.0,7.034102644,126.5607053,8.18,'11111222,11111222,11111222' 
TABS,ioos:station:wmo:42047:1,2011-12-02T10:00:00Z,27.8966,-93.5973,4.0,7.483234595,114.3049133,8.63,'11111222,11111222,11111222' 
TABS,ioos:station:wmo:42047:1,2011-12-02T10:30:00Z,27.8966,-93.5973,4.0,7.249337901,116.6361017,8.98,'11111222,11111222,11111222' 
TABS,ioos:station:wmo:42047:1,2011-12-02T11:00:00Z,27.8966,-93.5973,4.0,6.864990896,114.4374113,8.27,'11111222,11111222,11111222' 
TABS,ioos:station:wmo:42047:1,2011-12-02T11:30:00Z,27.8966,-93.5973,4.0,7.461313557,111.5451058,8.69,'11111222,11111222,11111222' 
TABS,ioos:station:wmo:42047:1,2011-12-02T12:00:00Z,27.8966,-93.5973,4.0,7.94713785,113.8237693,8.98,'11111222,11111222,11111222' 
TABS,ioos:station:wmo:42047:1,2011-12-02T12:30:00Z,27.8966,-93.5973,4.0,8.357344076,109.8663358,9.96,'11111222,11111222,11111222' 
TABS,ioos:station:wmo:42047:1,2011-12-02T13:00:00Z,27.8966,-93.5973,4.0,7.989173925,105.4630732,9.13,'11111222,11111222,11111222' 
TABS,ioos:station:wmo:42047:1,2011-12-02T13:30:00Z,27.8966,-93.5973,4.0,7.740917258,105.2035705,9.14,'11111222,11111222,11111222' 
TABS,ioos:station:wmo:42047:1,2011-12-02T14:00:00Z,27.8966,-93.5973,4.0,8.087799453,111.0124519,9.62,'11111222,11111222,11111222' 
TABS,ioos:station:wmo:42047:1,2011-12-02T14:30:00Z,27.8966,-93.5973,4.0,8.901556044,112.7341111,10.17,'11111222,11111222,11111222' 
TABS,ioos:station:wmo:42047:1,2011-12-02T15:00:00Z,27.8966,-93.5973,4.0,8.256209784,118.5831212,10.4,'11111222,11111222,11111222' 
TABS,ioos:station:wmo:42047:1,2011-12-02T15:30:00Z,27.8966,-93.5973,4.0,8.238209757,115.9122306,9.43,'11111222,11111222,11111222' 
TABS,ioos:station:wmo:42047:1,2011-12-02T16:00:00Z,27.8966,-93.5973,4.0,7.758047435,109.3461876,9.18,'11111222,11111222,11111222' 
TABS,ioos:station:wmo:42047:1,2011-12-02T16:30:00Z,27.8966,-93.5973,4.0,7.988253877,105.1674343,9.23,'11111222,11111222,11111222' 
TABS,ioos:station:wmo:42047:1,2011-12-02T17:00:00Z,27.8966,-93.5973,4.0,7.48012032,110.4219425,9.25,'11111222,11111222,11111222' 
TABS,ioos:station:wmo:42047:1,2011-12-02T17:30:00Z,27.8966,-93.5973,4.0,7.381395532,121.2569706,8.78,'11111222,11111222,11111222' 
TABS,ioos:station:wmo:42047:1,2011-12-02T18:00:00Z,27.8966,-93.5973,4.0,7.532018322,124.9985911,9.13,'11111222,11111222,11111222' 
TABS,ioos:station:wmo:42047:1,2011-12-02T18:30:00Z,27.8966,-93.5973,4.0,7.989255284,120.1277317,9.08,'11111222,11111222,11111222' 
TABS,ioos:station:wmo:42047:1,2011-12-02T19:00:00Z,27.8966,-93.5973,4.0,7.232046737,127.0762169,8.71,'11111222,11111222,11111222' 
TABS,ioos:station:wmo:42047:1,2011-12-02T19:30:00Z,27.8966,-93.5973,4.0,7.784812136,121.6078493,8.81,'11111222,11111222,11111222' 
TABS,ioos:station:wmo:42047:1,2011-12-02T20:00:00Z,27.8966,-93.5973,4.0,7.494664769,124.453741,9.04,'11111222,11111222,11111222' 
TABS,ioos:station:wmo:42047:1,2011-12-02T20:30:00Z,27.8966,-93.5973,4.0,6.9560046,126.9361273,8.45,'11111222,11111222,11111222' 
TABS,ioos:station:wmo:42047:1,2011-12-02T21:00:00Z,27.8966,-93.5973,4.0,7.332189305,122.4116046,8.47,'11111222,11111222,11111222' 
TABS,ioos:station:wmo:42047:1,2011-12-02T21:30:00Z,27.8966,-93.5973,4.0,7.326281458,129.906031,9.17,'11111222,11111222,11111222' 
TABS,ioos:station:wmo:42047:1,2011-12-02T22:00:00Z,27.8966,-93.5973,4.0,8.308309094,121.8156704,9.46,'11111222,11111222,11111222' 
TABS,ioos:station:wmo:42047:1,2011-12-02T22:30:00Z,27.8966,-93.5973,4.0,8.082951194,121.38959,9.66,'11111222,11111222,11111222' 
TABS,ioos:station:wmo:42047:1,2011-12-02T23:00:00Z,27.8966,-93.5973,4.0,8.6160896,120.9412963,10.32,'11111222,11111222,11111222' 
TABS,ioos:station:wmo:42047:1,2011-12-02T23:30:00Z,27.8966,-93.5973,4.0,8.396010958,117.7557183,10.36,'11111222,11111222,11111222' 
TABS,ioos:station:wmo:42047:1,2011-12-03T00:00:00Z,27.8966,-93.5973,4.0,8.538301939,121.8848076,10.28,'11111222,11111222,11111222' 
TABS,ioos:station:wmo:42047:1,2011-12-03T00:30:00Z,27.8966,-93.5973,4.0,8.516272659,119.9371632,9.94,'11111222,11111222,11111222' 
TABS,ioos:station:wmo:42047:1,2011-12-03T01:00:00Z,27.8966,-93.5973,4.0,9.005559394,123.7257011,10.44,'11111222,11111222,11111222' 
TABS,ioos:station:wmo:42047:1,2011-12-03T01:30:00Z,27.8966,-93.5973,4.0,8.533838527,121.1943918,9.67,'11111222,11111222,11111222' 
TABS,ioos:station:wmo:42047:1,2011-12-03T02:00:00Z,27.8966,-93.5973,4.0,8.50169983,119.2186024,9.94,'11111222,11111222,11111222' 
TABS,ioos:station:wmo:42047:1,2011-12-03T02:30:00Z,27.8966,-93.5973,4.0,9.913349585,122.9369849,11.39,'11111222,11111222,11111222' 
TABS,ioos:station:wmo:42047:1,2011-12-03T03:00:00Z,27.8966,-93.5973,4.0,10.32298406,123.7827723,12.05,'11111222,11111222,11111222' 
TABS,ioos:station:wmo:42047:1,2011-12-03T03:30:00Z,27.8966,-93.5973,4.0,10.38249488,136.1710447,12.01,'11111222,11111222,11111222' 
TABS,ioos:station:wmo:42047:1,2011-12-03T04:00:00Z,27.8966,-93.5973,4.0,9.921703483,130.0942602,11.87,'11111222,11111222,11111222' 
TABS,ioos:station:wmo:42047:1,2011-12-03T04:30:00Z,27.8966,-93.5973,4.0,9.982108996,147.7271958,11.03,'11111222,11111222,11111222' 
TABS,ioos:station:wmo:42047:1,2011-12-03T05:00:00Z,27.8966,-93.5973,4.0,9.595102918,148.0328798,11.8,'11111222,11111222,11111222' 
TABS,ioos:station:wmo:42047:1,2011-12-03T05:30:00Z,27.8966,-93.5973,4.0,10.28834292,152.18986,12.14,'11111222,11111222,11111222' 
TABS,ioos:station:wmo:42047:1,2011-12-03T06:00:00Z,27.8966,-93.5973,4.0,10.0736339,145.8842983,11.59,'11111222,11111222,11111222' 
TABS,ioos:station:wmo:42047:1,2011-12-03T06:30:00Z,27.8966,-93.5973,4.0,9.670661818,147.5427262,10.92,'11111222,11111222,11111222' 
TABS,ioos:station:wmo:42047:1,2011-12-03T07:00:00Z,27.8966,-93.5973,4.0,8.794464168,149.1482572,10.08,'11111222,11111222,11111222' 
TABS,ioos:station:wmo:42047:1,2011-12-03T07:30:00Z,27.8966,-93.5973,4.0,8.564560701,143.7860189,10.26,'11111222,11111222,11111222' 
TABS,ioos:station:wmo:42047:1,2011-12-03T08:00:00Z,27.8966,-93.5973,4.0,9.031854738,147.2955534,11.03,'11111222,11111222,11111222' 
TABS,ioos:station:wmo:42047:1,2011-12-03T08:30:00Z,27.8966,-93.5973,4.0,8.745221552,148.4185349,10.62,'11111222,11111222,11111222' 
TABS,ioos:station:wmo:42047:1,2011-12-03T09:00:00Z,27.8966,-93.5973,4.0,8.24224484,153.7150134,9.4,'11111222,11111222,11111222' 
TABS,ioos:station:wmo:42047:1,2011-12-03T09:30:00Z,27.8966,-93.5973,4.0,8.578700368,156.2140921,9.7,'11111222,11111222,11111222' 
TABS,ioos:station:wmo:42047:1,2011-12-03T10:00:00Z,27.8966,-93.5973,4.0,8.771088872,147.2886101,10.01,'11111222,11111222,11111222' 
TABS,ioos:station:wmo:42047:1,2011-12-03T10:30:00Z,27.8966,-93.5973,4.0,10.95710272,151.0726479,12.32,'11111222,11111222,11111222' 
TABS,ioos:station:wmo:42047:1,2011-12-03T11:00:00Z,27.8966,-93.5973,4.0,9.977624968,152.9986427,11.18,'11111222,11111222,11111222' 
TABS,ioos:station:wmo:42047:1,2011-12-03T11:30:00Z,27.8966,-93.5973,4.0,10.05212415,155.678961,11.62,'11111222,11111222,11111222' 
TABS,ioos:station:wmo:42047:1,2011-12-03T12:00:00Z,27.8966,-93.5973,4.0,9.210515729,158.3374702,10.4,'11111222,11111222,11111222' 
TABS,ioos:station:wmo:42047:1,2011-12-03T12:30:00Z,27.8966,-93.5973,4.0,10.30330529,155.0270485,11.47,'11111222,11111222,11111222' 
TABS,ioos:station:wmo:42047:1,2011-12-03T13:00:00Z,27.8966,-93.5973,4.0,9.858377148,154.5269301,11.1,'11111222,11111222,11111222' 
TABS,ioos:station:wmo:42047:1,2011-12-03T13:30:00Z,27.8966,-93.5973,4.0,9.809841997,154.7152121,11.16,'11111222,11111222,11111222' 
TABS,ioos:station:wmo:42047:1,2011-12-03T14:00:00Z,27.8966,-93.5973,4.0,10.41218517,150.9242953,11.6,'11111222,11111222,11111222' 
TABS,ioos:station:wmo:42047:1,2011-12-03T14:30:00Z,27.8966,-93.5973,4.0,10.95176698,151.89086,12.53,'11111222,11111222,11111222' 
TABS,ioos:station:wmo:42047:1,2011-12-03T15:00:00Z,27.8966,-93.5973,4.0,11.87510421,150.1536622,13.35,'11111222,11111222,11111222' 
TABS,ioos:station:wmo:42047:1,2011-12-03T15:30:00Z,27.8966,-93.5973,4.0,10.79120475,151.7966138,12.32,'11111222,11111222,11111222' 
TABS,ioos:station:wmo:42047:1,2011-12-03T16:00:00Z,27.8966,-93.5973,4.0,10.77787085,153.5540919,12.67,'11111222,11111222,11111222' 
TABS,ioos:station:wmo:42047:1,2011-12-03T16:30:00Z,27.8966,-93.5973,4.0,10.12178344,150.8522068,11.49,'11111222,11111222,11111222' 
TABS,ioos:station:wmo:42047:1,2011-12-03T17:00:00Z,27.8966,-93.5973,4.0,10.12743798,150.2203126,12.23,'11111222,11111222,11111222' 
TABS,ioos:station:wmo:42047:1,2011-12-03T17:30:00Z,27.8966,-93.5973,4.0,10.64603212,152.2317084,12.4,'11111222,11111222,11111222' 
TABS,ioos:station:wmo:42047:1,2011-12-03T18:00:00Z,27.8966,-93.5973,4.0,10.57170753,148.460243,12.11,'11111222,11111222,11111222' 
TABS,ioos:station:wmo:42047:1,2011-12-03T18:30:00Z,27.8966,-93.5973,4.0,10.37231893,145.1304568,11.64,'11111222,11111222,11111222' 
TABS,ioos:station:wmo:42047:1,2011-12-03T19:00:00Z,27.8966,-93.5973,4.0,10.81129039,148.9274611,12.21,'11111222,11111222,11111222' 
TABS,ioos:station:wmo:42047:1,2011-12-03T19:30:00Z,27.8966,-93.5973,4.0,10.31397111,149.2080126,12.6,'11111222,11111222,11111222' 
TABS,ioos:station:wmo:42047:1,2011-12-03T20:00:00Z,27.8966,-93.5973,4.0,9.743433686,149.6718859,11.28,'11111222,11111222,11111222' 
TABS,ioos:station:wmo:42047:1,2011-12-03T20:30:00Z,27.8966,-93.5973,4.0,9.8486395,141.8038631,11.73,'11111222,11111222,11111222' 
TABS,ioos:station:wmo:42047:1,2011-12-03T21:00:00Z,27.8966,-93.5973,4.0,10.92033882,147.1105914,12.93,'11111222,11111222,11111222' 
TABS,ioos:station:wmo:42047:1,2011-12-03T21:30:00Z,27.8966,-93.5973,4.0,11.0283453,148.2702539,12.52,'11111222,11111222,11111222' 
TABS,ioos:station:wmo:42047:1,2011-12-03T22:00:00Z,27.8966,-93.5973,4.0,10.99072791,150.3329912,12.62,'11111222,11111222,11111222' 
TABS,ioos:station:wmo:42047:1,2011-12-03T22:30:00Z,27.8966,-93.5973,4.0,10.49817603,146.8551573,11.88,'11111222,11111222,11111222' 
TABS,ioos:station:wmo:42047:1,2011-12-03T23:00:00Z,27.8966,-93.5973,4.0,9.863047196,146.874137,10.94,'11111222,11111222,11111222' 
TABS,ioos:station:wmo:42047:1,2011-12-03T23:30:00Z,27.8966,-93.5973,4.0,10.14842352,145.9657317,11.13,'11111222,11111222,11111222' 
TABS,ioos:station:wmo:42047:1,2011-12-04T00:00:00Z,27.8966,-93.5973,4.0,10.81647817,151.3264048,12.45,'11111222,11111222,11111222' 
TABS,ioos:station:wmo:42047:1,2011-12-04T00:30:00Z,27.8966,-93.5973,4.0,10.26705898,151.9376372,11.71,'11111222,11111222,11111222' 
TABS,ioos:station:wmo:42047:1,2011-12-04T01:00:00Z,27.8966,-93.5973,4.0,10.66883311,151.3212413,12.33,'11111222,11111222,11111222' 
TABS,ioos:station:wmo:42047:1,2011-12-04T01:30:00Z,27.8966,-93.5973,4.0,9.777535477,147.1066205,11.47,'11111222,11111222,11111222' 
TABS,ioos:station:wmo:42047:1,2011-12-04T02:00:00Z,27.8966,-93.5973,4.0,10.49104857,150.6008755,12.54,'11111222,11111222,11111222' 
TABS,ioos:station:wmo:42047:1,2011-12-04T02:30:00Z,27.8966,-93.5973,4.0,9.880126517,148.787892,11.34,'11111222,11111222,11111222' 
TABS,ioos:station:wmo:42047:1,2011-12-04T03:00:00Z,27.8966,-93.5973,4.0,10.92632143,148.7397536,12.74,'11111222,11111222,11111222' 
TABS,ioos:station:wmo:42047:1,2011-12-04T03:30:00Z,27.8966,-93.5973,4.0,10.55022749,153.9695443,11.89,'11111222,11111222,11111222' 
TABS,ioos:station:wmo:42047:1,2011-12-04T04:00:00Z,27.8966,-93.5973,4.0,11.69028657,153.6982447,13.25,'11111222,11111222,11111222' 
TABS,ioos:station:wmo:42047:1,2011-12-04T04:30:00Z,27.8966,-93.5973,4.0,11.2241258,151.9968526,13.28,'11111222,11111222,11111222' 
TABS,ioos:station:wmo:42047:1,2011-12-04T05:00:00Z,27.8966,-93.5973,4.0,11.70027777,152.6249012,13.91,'11111222,11111222,11111222' 
TABS,ioos:station:wmo:42047:1,2011-12-04T05:30:00Z,27.8966,-93.5973,4.0,11.00420374,152.1544346,12.73,'11111222,11111222,11111222' 
TABS,ioos:station:wmo:42047:1,2011-12-04T06:00:00Z,27.8966,-93.5973,4.0,9.979278531,151.3806533,11.36,'11111222,11111222,11111222' 
TABS,ioos:station:wmo:42047:1,2011-12-04T06:30:00Z,27.8966,-93.5973,4.0,10.06181395,150.5308564,11.26,'11111222,11111222,11111222' 
TABS,ioos:station:wmo:42047:1,2011-12-04T07:00:00Z,27.8966,-93.5973,4.0,10.07668596,151.553182,11.44,'11111222,11111222,11111222' 
TABS,ioos:station:wmo:42047:1,2011-12-04T07:30:00Z,27.8966,-93.5973,4.0,10.12881039,150.5500835,11.46,'11111222,11111222,11111222' 
TABS,ioos:station:wmo:42047:1,2011-12-04T08:00:00Z,27.8966,-93.5973,4.0,9.631365428,151.1999091,11.0,'11111222,11111222,11111222' 
TABS,ioos:station:wmo:42047:1,2011-12-04T08:30:00Z,27.8966,-93.5973,4.0,9.445263363,150.3682593,10.69,'11111222,11111222,11111222' 
TABS,ioos:station:wmo:42047:1,2011-12-04T09:00:00Z,27.8966,-93.5973,4.0,9.749666661,153.9608548,11.27,'11111222,11111222,11111222' 
TABS,ioos:station:wmo:42047:1,2011-12-04T09:30:00Z,27.8966,-93.5973,4.0,9.565965712,153.2209329,11.12,'11111222,11111222,11111222' 
TABS,ioos:station:wmo:42047:1,2011-12-04T10:00:00Z,27.8966,-93.5973,4.0,9.529181497,156.3674451,11.06,'11111222,11111222,11111222' 
TABS,ioos:station:wmo:42047:1,2011-12-04T10:30:00Z,27.8966,-93.5973,4.0,9.928544707,153.9513844,11.06,'11111222,11111222,11111222' 
TABS,ioos:station:wmo:42047:1,2011-12-04T11:00:00Z,27.8966,-93.5973,4.0,9.723908679,152.4338356,11.44,'11111222,11111222,11111222' 
TABS,ioos:station:wmo:42047:1,2011-12-04T11:30:00Z,27.8966,-93.5973,4.0,10.92994511,153.5993247,12.62,'11111222,11111222,11111222' 
TABS,ioos:station:wmo:42047:1,2011-12-04T12:00:00Z,27.8966,-93.5973,4.0,10.82358998,156.8225267,12.45,'11111222,11111222,11111222' 
TABS,ioos:station:wmo:42047:1,2011-12-04T12:30:00Z,27.8966,-93.5973,4.0,10.6875348,158.8857694,12.26,'11111222,11111222,11111222' 
TABS,ioos:station:wmo:42047:1,2011-12-04T13:00:00Z,27.8966,-93.5973,4.0,9.966845037,154.8236232,11.32,'11111222,11111222,11111222' 
TABS,ioos:station:wmo:42047:1,2011-12-04T13:30:00Z,27.8966,-93.5973,4.0,10.71113906,152.956772,12.6,'11111222,11111222,11111222' 
TABS,ioos:station:wmo:42047:1,2011-12-04T14:00:00Z,27.8966,-93.5973,4.0,10.7883502,154.4090586,12.51,'11111222,11111222,11111222' 
TABS,ioos:station:wmo:42047:1,2011-12-04T14:30:00Z,27.8966,-93.5973,4.0,10.44008142,154.5888338,11.93,'11111222,11111222,11111222' 
TABS,ioos:station:wmo:42047:1,2011-12-04T15:00:00Z,27.8966,-93.5973,4.0,10.06531172,152.03494,11.37,'11111222,11111222,11111222' 
TABS,ioos:station:wmo:42047:1,2011-12-04T15:30:00Z,27.8966,-93.5973,4.0,10.4948797,151.2373201,11.89,'11111222,11111222,11111222' 
TABS,ioos:station:wmo:42047:1,2011-12-04T16:00:00Z,27.8966,-93.5973,4.0,8.855845527,154.3032708,10.6,'11111222,11111222,11111222' 
TABS,ioos:station:wmo:42047:1,2011-12-04T16:30:00Z,27.8966,-93.5973,4.0,9.053491039,150.6321834,10.39,'11111222,11111222,11111222' 
TABS,ioos:station:wmo:42047:1,2011-12-04T17:00:00Z,27.8966,-93.5973,4.0,8.537646046,153.9454363,9.71,'11111222,11111222,11111222' 
TABS,ioos:station:wmo:42047:1,2011-12-04T17:30:00Z,27.8966,-93.5973,4.0,8.982694473,150.5243904,10.33,'11111222,11111222,11111222' 
TABS,ioos:station:wmo:42047:1,2011-12-04T18:00:00Z,27.8966,-93.5973,4.0,9.284530144,148.0733982,10.72,'11111222,11111222,11111222' 
TABS,ioos:station:wmo:42047:1,2011-12-04T18:30:00Z,27.8966,-93.5973,4.0,8.913686106,147.6474122,10.21,'11111222,11111222,11111222' 